{"data":{"norad_id":65396,"intl_designator":"2025-191T","name":"STARLINK-34811","alt_names":[],"object_type":"PAYLOAD","status":"ACTIVE","operator":null,"country":"US","launch_date":"2025-08-30","launch_site_code":"AFWTR","launch_vehicle":null,"mission":null,"orbit_class":"UNKNOWN","rcs_meters":null,"size_class":null,"mass_kg":null,"dimensions":null,"purposes":["comms"],"wikipedia_slug":null,"has_3d_model":false,"image_url":null,"decayed_at":null,"tle_current":{"epoch":"2026-05-25T02:28:11.773056Z","epoch_age_seconds":56216,"freshness":"FRESH","line1":"1 65396U 25191T   26145.10291404  .00002775  00000+0  19625-3 0  9992","line2":"2 65396  97.4510  16.4126 0002998  85.4100 274.7470 15.05658672 41767","mean_motion":15.05658672,"eccentricity":0.0002998,"inclination_deg":97.451,"raan_deg":16.4126,"arg_perigee_deg":85.41,"mean_anomaly_deg":274.747,"bstar":0.00019625,"rev_number":4176,"period_min":95.639206068346,"perigee_km":547.40765272475,"apogee_km":551.56145460833,"semimajor_km":6927.6215536665,"source":"CELESTRAK","updated_at":"2026-05-25T13:38:20.795402Z"}}}